GW2783 Weather Reports


time (UTC)temp
F
wind
direction
speed
knots
gust
knots
rain 1hr
in
rain 24hr
in
rain mn
in
humidity
%
barometer
mb
20260510203513 67 101 1.7 6.1 0.00 0.00 0.00 37 1016.7
20260510203028 67 265 2.6 8.7 0.00 0.00 0.00 36 1016.7
20260510202509 67 238 2.6 8.7 0.00 0.00 0.00 38 1016.8
20260510202011 67 328 1.7 7.8 0.00 0.00 0.00 37 1016.7
20260510201527 67 75 2.6 7.8 0.00 0.00 0.00 38 1016.9
20260510201013 66 303 1.7 7.0 0.00 0.00 0.00 38 1016.9
20260510200511 66 108 2.6 8.7 0.00 0.00 0.00 38 1016.8
20260510200027 66 309 0.9 8.7 0.00 0.00 0.00 39 1016.9
20260510195512 65 286 3.5 7.8 0.00 0.00 0.00 39 1016.8
20260510195009 66 25 2.6 7.8 0.00 0.00 0.00 41 1017.0
20260510194538 66 300 1.7 7.8 0.00 0.00 0.00 39 1017.0
20260510194012 66 89 2.6 7.8 0.00 0.00 0.00 38 1017.0
20260510193512 67 286 2.6 8.7 0.00 0.00 0.00 39 1017.0
20260510193030 67 1 3.5 8.7 0.00 0.00 0.00 39 1017.0
20260510192515 67 272 2.6 8.7 0.00 0.00 0.00 38 1017.0
20260510192011 66 238 3.5 7.0 0.00 0.00 0.00 40 1017.2
20260510191532 66 304 2.6 6.1 0.00 0.00 0.00 41 1017.1
20260510191012 66 92 2.6 9.6 0.00 0.00 0.00 40 1017.0
20260510190512 66 309 0.9 9.6 0.00 0.00 0.00 38 1017.2
20260510190043 66 39 3.5 9.6 0.00 0.00 0.00 39 1017.2
20260510185511 67 316 3.5 7.8 0.00 0.00 0.00 39 1017.0
20260510185012 67 295 0.9 7.8 0.00 0.00 0.00 39 1016.9
20260510184527 66 295 4.3 7.8 0.00 0.00 0.00 38 1016.9
20260510184012 66 357 1.7 8.7 0.00 0.00 0.00 40 1017.0
20260510183518 65 26 4.3 8.7 0.00 0.00 0.00 41 1017.0
20260510183030 66 262 1.7 8.7 0.00 0.00 0.00 38 1016.8
20260510182516 66 324 4.3 8.7 0.00 0.00 0.00 38 1016.8
20260510182009 65 293 3.5 7.0 0.00 0.00 0.00 38 1016.7
20260510181528 65 307 3.5 6.1 0.00 0.00 0.00 38 1016.8
20260510181013 65 282 0.9 8.7 0.00 0.00 0.00 38 1016.9
20260510180512 65 240 4.3 8.7 0.00 0.00 0.00 37 1017.1
20260510180031 65 330 1.7 8.7 0.00 0.00 0.00 38 1017.0
20260510175514 65 340 4.3 8.7 0.00 0.00 0.00 38 1017.0
20260510175009 65 0 2.6 8.7 0.00 0.00 0.00 38 1016.6
20260510174530 65 318 2.6 8.7 0.00 0.00 0.00 39 1016.5
20260510174009 65 309 1.7 7.8 0.00 0.00 0.00 38 1016.5
20260510173509 65 259 3.5 7.8 0.00 0.00 0.00 36 1016.6
20260510173028 67 0 1.7 5.2 0.00 0.00 0.00 37 1016.6
20260510172510 66 255 0.9 7.0 0.00 0.00 0.00 37 1016.8
20260510172010 66 0 1.7 8.7 0.00 0.00 0.00 36 1016.7
20260510171528 66 118 2.6 9.6 0.00 0.00 0.00 38 1016.7
20260510171012 66 123 1.7 9.6 0.00 0.00 0.00 42 1016.7
20260510170518 66 83 1.7 7.0 0.00 0.00 0.00 36 1016.6
20260510170031 65 110 1.7 6.1 0.00 0.00 0.00 41 1016.6
20260510165511 65 325 2.6 6.1 0.00 0.00 0.00 40 1016.8
20260510165010 64 110 3.5 9.6 0.00 0.00 0.00 41 1016.8
20260510164529 64 286 3.5 9.6 0.00 0.00 0.00 39 1016.8
20260510164009 64 313 2.6 7.0 0.00 0.00 0.00 39 1016.9
20260510163509 65 272 2.6 7.8 0.00 0.00 0.00 42 1016.9
20260510163038 65 296 2.6 7.8 0.00 0.00 0.00 40 1016.8
20260510162513 65 128 1.7 6.1 0.00 0.00 0.00 42 1016.8
20260510162008 65 75 3.5 6.1 0.00 0.00 0.00 39 1016.9
20260510161534 65 8 1.7 8.7 0.00 0.00 0.00 41 1016.9
20260510161012 64 96 2.6 8.7 0.00 0.00 0.00 40 1016.8
20260510160513 65 116 1.7 8.7 0.00 0.00 0.00 39 1016.8
20260510160029 65 70 3.5 8.7 0.00 0.00 0.00 36 1016.7
20260510155511 65 58 1.7 7.8 0.00 0.00 0.00 42 1016.7
20260510155011 64 101 2.6 7.8 0.00 0.00 0.00 40 1016.7
20260510154531 64 322 2.6 6.1 0.00 0.00 0.00 44 1016.6
20260510154011 63 155 1.7 6.1 0.00 0.00 0.00 43 1016.5
20260510153511 63 3 1.7 8.7 0.00 0.00 0.00 45 1016.6
20260510153034 63 332 3.5 8.7 0.00 0.00 0.00 42 1016.5
20260510152513 63 68 4.3 8.7 0.00 0.00 0.00 42 1016.4
20260510152009 63 291 0.9 5.2 0.00 0.00 0.00 45 1016.3
20260510151533 63 297 2.6 5.2 0.00 0.00 0.00 43 1016.2
20260510151010 63 0 1.7 5.2 0.00 0.00 0.00 44 1016.1
20260510150514 63 306 1.7 5.2 0.00 0.00 0.00 45 1016.1
20260510150037 63 105 1.7 7.0 0.00 0.00 0.00 44 1016.1
20260510145508 62 0 0.0 7.0 0.00 0.00 0.00 47 1016.0
20260510145011 62 297 0.9 7.0 0.00 0.00 0.00 47 1016.0
20260510144538 61 47 1.7 7.0 0.00 0.00 0.00 46 1015.9
20260510144012 61 110 0.9 4.3 0.00 0.00 0.00 50 1015.9
20260510143513 61 131 0.0 3.5 0.00 0.00 0.00 48 1015.7
20260510143037 61 100 0.0 7.0 0.00 0.00 0.00 48 1015.6
20260510142513 60 33 0.9 7.0 0.00 0.00 0.00 48 1015.5
20260510142012 59 81 1.7 7.0 0.00 0.00 0.00 51 1015.5
20260510141529 59 347 1.7 4.3 0.00 0.00 0.00 51 1015.4
20260510141012 59 98 0.9 4.3 0.00 0.00 0.00 52 1015.5
20260510140509 59 82 0.9 4.3 0.00 0.00 0.00 51 1015.5
20260510140033 59 77 0.9 5.2 0.00 0.00 0.00 51 1015.4
20260510135509 59 97 1.7 5.2 0.00 0.00 0.00 52 1015.3
20260510135011 58 331 1.7 6.1 0.00 0.00 0.00 51 1015.4
20260510134530 58 113 1.7 6.1 0.00 0.00 0.00 53 1015.4
20260510134011 58 101 3.5 5.2 0.00 0.00 0.00 54 1015.3
20260510133511 57 114 0.9 4.3 0.00 0.00 0.00 55 1015.2
20260510133029 57 75 0.9 4.3 0.00 0.00 0.00 55 1015.3
20260510132513 57 0 0.0 4.3 0.00 0.00 0.00 57 1015.1
20260510132016 57 0 0.9 4.3 0.00 0.00 0.00 56 1015.1
20260510131530 57 0 0.0 4.3 0.00 0.00 0.00 57 1015.1
20260510131012 56 77 0.9 4.3 0.00 0.00 0.00 58 1015.0
20260510130512 56 103 1.7 4.3 0.00 0.00 0.00 58 1015.0
20260510130034 56 108 0.9 3.5 0.00 0.00 0.00 59 1015.0
20260510125511 56 70 0.9 3.5 0.00 0.02 0.00 58 1014.9
20260510125010 56 0 0.0 2.6 0.00 0.02 0.00 63 1015.0
20260510124532 56 0 0.0 2.6 0.00 0.02 0.00 62 1014.9
20260510124011 56 0 0.0 2.6 0.00 0.02 0.00 63 1014.8
20260510123511 56 0 0.0 5.2 0.00 0.02 0.00 64 1014.6
20260510123028 55 96 0.9 5.2 0.00 0.02 0.00 64 1014.4
20260510122511 55 111 0.0 3.5 0.00 0.02 0.00 65 1014.2
20260510122010 55 90 0.0 1.7 0.00 0.02 0.00 67 1014.2
20260510121530 55 0 0.0 0.0 0.00 0.02 0.00 69 1014.3
20260510121015 55 0 0.0 0.0 0.00 0.02 0.00 69 1014.3
20260510120513 55 0 0.0 0.9 0.00 0.02 0.00 69 1014.3
20260510120028 55 0 0.0 1.7 0.00 0.02 0.00 69 1014.2
20260510115510 55 0 0.0 1.7 0.00 0.02 0.00 68 1014.0
20260510115013 55 33 0.0 3.5 0.00 0.02 0.00 67 1014.0
20260510114533 55 0 0.0 3.5 0.00 0.02 0.00 67 1013.9
20260510114010 55 143 0.9 3.5 0.00 0.02 0.00 67 1013.8
20260510113510 55 110 0.9 4.3 0.00 0.02 0.00 68 1013.7
20260510113027 55 0 0.9 4.3 0.00 0.02 0.00 68 1013.8
20260510112514 55 346 0.0 4.3 0.00 0.02 0.00 70 1013.8
20260510112013 56 341 0.0 4.3 0.00 0.02 0.00 69 1013.6
20260510111530 56 14 1.7 4.3 0.00 0.02 0.00 68 1013.5
20260510111011 56 333 0.9 3.5 0.00 0.02 0.00 69 1013.4
20260510110511 56 0 0.0 1.7 0.00 0.02 0.00 68 1013.4
20260510110030 56 0 0.0 4.3 0.00 0.02 0.00 68 1013.3
20260510105510 56 0 0.0 4.3 0.00 0.08 0.00 67 1013.2
20260510105013 56 0 0.9 2.6 0.00 0.08 0.00 67 1013.2
20260510104529 56 0 0.0 3.5 0.00 0.08 0.00 67 1013.3
20260510104011 56 0 0.0 3.5 0.00 0.08 0.00 68 1013.1
20260510103512 56 0 0.0 3.5 0.00 0.08 0.00 67 1012.8
20260510103029 57 268 0.9 3.5 0.00 0.08 0.00 67 1012.5
20260510102510 57 0 0.9 4.3 0.00 0.08 0.00 67 1012.4
20260510102011 57 309 0.9 4.3 0.00 0.08 0.00 68 1012.5
20260510101528 57 0 0.0 4.3 0.00 0.08 0.00 68 1012.2
20260510101012 57 0 0.0 1.7 0.00 0.08 0.00 69 1012.1
20260510100512 57 0 0.0 1.7 0.00 0.08 0.00 69 1011.9
20260510100041 57 0 0.0 3.5 0.00 0.08 0.00 69 1011.8
20260510095511 57 295 0.0 3.5 0.00 0.12 0.00 70 1011.8
20260510095012 57 299 0.0 3.5 0.00 0.12 0.00 70 1011.8
20260510094546 57 0 0.0 3.5 0.00 0.12 0.00 70 1011.8
20260510094009 57 0 0.9 4.3 0.00 0.12 0.00 70 1011.8
20260510093513 57 0 0.9 4.3 0.00 0.12 0.00 70 1011.7
20260510093028 58 283 0.9 4.3 0.00 0.12 0.00 71 1011.7
20260510092513 58 293 0.9 4.3 0.00 0.12 0.00 71 1011.5
20260510092012 58 305 1.7 4.3 0.00 0.12 0.00 71 1011.4
20260510091531 58 274 1.7 4.3 0.00 0.12 0.00 71 1011.2
20260510091012 58 306 1.7 3.5 0.00 0.12 0.00 71 1011.1
20260510090512 58 288 0.0 7.0 0.00 0.12 0.00 71 1010.9
20260510090037 58 266 2.6 7.0 0.00 0.12 0.00 71 1010.9
20260510085512 59 290 0.9 3.5 0.00 0.18 0.00 72 1010.8
20260510085014 59 283 0.9 3.5 0.00 0.18 0.00 72 1010.6
20260510084528 59 0 0.0 6.1 0.00 0.18 0.00 73 1010.6
20260510084011 59 39 0.9 6.1 0.00 0.18 0.00 73 1010.4
20260510083512 59 0 0.0 3.5 0.00 0.18 0.00 73 1010.3
20260510083031 59 0 0.9 5.2 0.00 0.18 0.00 73 1010.1
20260510082511 59 0 0.0 5.2 0.00 0.18 0.00 73 1010.1
20260510082011 59 283 1.7 4.3 0.00 0.18 0.00 73 1010.1
20260510081543 59 0 1.7 4.3 0.00 0.18 0.00 73 1009.9
20260510081015 59 283 0.9 3.5 0.00 0.18 0.00 73 1009.9
20260510080510 60 283 0.9 5.2 0.00 0.18 0.00 72 1009.8
20260510080031 60 256 0.9 5.2 0.00 0.18 0.00 72 1009.7
20260510075512 60 299 2.6 5.2 0.00 0.28 0.00 72 1009.9
20260510075012 60 308 1.7 5.2 0.00 0.28 0.00 72 1009.7
20260510074530 60 285 2.6 5.2 0.00 0.28 0.00 72 1009.8
20260510074012 60 311 0.9 4.3 0.00 0.28 0.00 72 1009.6
20260510073509 60 293 1.7 4.3 0.00 0.28 0.00 71 1009.7
20260510073028 61 305 1.7 4.3 0.00 0.28 0.00 71 1009.9
20260510072510 61 296 1.7 4.3 0.00 0.28 0.00 71 1009.9
20260510072012 61 282 0.9 3.5 0.00 0.28 0.00 71 1010.0
20260510071536 61 245 0.9 3.5 0.00 0.28 0.00 70 1010.0
20260510071012 61 258 0.9 2.6 0.00 0.28 0.00 70 1009.9
20260510070511 61 245 0.0 4.3 0.00 0.28 0.00 69 1009.9
20260510070037 61 236 0.9 4.3 0.00 0.28 0.00 69 1009.8
20260510065512 61 287 1.7 7.0 0.00 0.31 0.00 68 1009.7
20260510065016 61 246 1.7 7.0 0.00 0.31 0.00 68 1009.8
20260510064528 61 255 1.7 6.1 0.00 0.31 0.00 68 1009.9
20260510064012 61 238 1.7 6.1 0.00 0.31 0.00 68 1010.0
20260510063512 61 307 0.9 1.7 0.00 0.31 0.00 69 1009.8
20260510063035 62 240 0.0 2.6 0.00 0.31 0.00 69 1009.8
20260510062510 62 247 0.0 2.6 0.00 0.31 0.00 68 1009.7
20260510062019 62 261 0.9 5.2 0.00 0.31 0.00 69 1009.8
20260510061530 62 288 1.7 7.8 0.00 0.31 0.00 68 1009.8
20260510061012 62 300 2.6 7.8 0.00 0.31 0.00 67 1010.0
20260510060512 62 276 1.7 7.0 0.00 0.31 0.00 69 1009.9
20260510060028 63 301 2.6 11.3 0.00 0.31 0.00 69 1010.0
20260510055511 63 302 4.3 11.3 0.00 0.32 0.00 68 1010.2
20260510055012 63 321 2.6 13.9 0.00 0.32 0.00 69 1010.2
20260510054530 63 224 1.7 13.9 0.00 0.32 0.00 71 1010.1
20260510054011 63 210 3.5 13.9 0.00 0.32 0.00 70 1010.2
20260510053511 62 229 0.9 5.2 0.00 0.32 0.00 70 1010.2
20260510053030 62 241 0.9 3.5 0.00 0.32 0.00 70 1010.1
20260510052512 62 0 0.0 0.0 0.00 0.32 0.00 70 1010.1
20260510052009 62 0 0.0 0.0 0.00 0.32 0.00 70 1010.0
20260510051528 62 0 0.0 0.0 0.00 0.32 0.00 69 1009.9
20260510051013 62 0 0.0 0.0 0.00 0.32 0.00 69 1009.7
20260510050516 62 0 0.0 0.0 0.00 0.32 0.00 69 1009.6
20260510050029 62 0 0.0 0.9 0.00 0.32 0.00 69 1009.5
20260510045516 62 0 0.0 0.9 0.00 0.33 0.00 69 1009.5
20260510045015 62 0 0.0 0.0 0.00 0.33 0.00 69 1009.6
20260510044533 62 0 0.0 1.7 0.00 0.33 0.00 69 1009.6
20260510044012 62 0 0.0 1.7 0.00 0.33 0.00 69 1009.4
20260510043509 62 0 0.0 1.7 0.00 0.33 0.00 70 1009.4
20260510043031 62 0 0.0 0.9 0.00 0.33 0.00 70 1009.3
20260510042511 62 243 0.0 1.7 0.00 0.33 0.00 70 1009.3
20260510042008 62 0 0.0 1.7 0.00 0.33 0.00 70 1009.3
20260510041528 61 0 0.0 0.9 0.00 0.33 0.00 70 1009.3
20260510041009 62 0 0.0 2.6 0.00 0.33 0.00 70 1009.3
20260510040512 62 235 0.0 2.6 0.00 0.33 0.00 69 1009.2
20260510040028 62 0 0.0 4.3 0.00 0.33 0.00 69 1009.2
20260510035511 62 203 0.0 4.3 0.00 0.33 0.33 69 1009.3
20260510035011 62 0 0.0 2.6 0.00 0.33 0.33 69 1009.2
20260510034557 62 0 0.0 2.6 0.00 0.33 0.33 69 1009.1
20260510034014 62 207 0.0 2.6 0.00 0.33 0.33 69 1009.2
20260510033512 62 0 0.0 0.9 0.00 0.33 0.33 69 1009.2
20260510033029 62 0 0.0 0.9 0.00 0.33 0.33 69 1009.0
20260510032512 62 0 0.0 0.0 0.00 0.33 0.33 69 1009.1
20260510032013 62 0 0.0 0.0 0.00 0.33 0.33 68 1008.9
20260510031531 62 0 0.0 0.9 0.00 0.33 0.33 68 1008.8
20260510031013 62 0 0.0 0.9 0.00 0.33 0.33 68 1008.8
20260510030508 62 0 0.0 1.7 0.00 0.33 0.33 68 1008.8
20260510030032 63 0 0.0 1.7 0.00 0.33 0.33 67 1008.7
20260510025510 63 0 0.0 0.0 0.00 0.33 0.33 67 1008.7
20260510025013 63 0 0.0 0.0 0.00 0.33 0.33 67 1008.8
20260510024529 63 0 0.0 0.0 0.00 0.33 0.33 67 1008.7
20260510024012 63 0 0.0 0.0 0.00 0.33 0.33 66 1008.7
20260510023512 63 0 0.0 0.9 0.00 0.33 0.33 66 1008.8
20260510023032 63 0 0.0 0.9 0.00 0.33 0.33 66 1008.7
20260510022511 63 0 0.0 1.7 0.00 0.33 0.33 66 1008.6
20260510022013 63 0 0.0 1.7 0.00 0.33 0.33 65 1008.6
20260510021533 64 0 0.0 0.0 0.00 0.33 0.33 65 1008.6
20260510021011 64 0 0.0 1.7 0.00 0.33 0.33 64 1008.5
20260510020518 64 0 0.0 1.7 0.00 0.33 0.33 64 1008.5
20260510020030 64 0 0.0 0.0 0.00 0.33 0.33 64 1008.4
20260510015512 64 0 0.0 0.0 0.00 0.33 0.33 64 1008.3
20260510015015 65 0 0.0 0.9 0.00 0.33 0.33 63 1008.2
20260510014536 65 0 0.0 0.9 0.00 0.33 0.33 62 1008.1
20260510014012 65 0 0.0 0.0 0.00 0.33 0.33 62 1008.0
20260510013513 65 0 0.0 0.0 0.00 0.33 0.33 62 1008.0
20260510013031 65 0 0.0 1.7 0.00 0.33 0.33 62 1008.0
20260510012512 65 0 0.0 1.7 0.00 0.33 0.33 61 1008.0
20260510012014 66 0 0.0 0.0 0.00 0.33 0.33 61 1007.9
20260510011539 66 0 0.0 0.0 0.00 0.33 0.33 60 1007.7
20260510011012 66 0 0.0 0.0 0.00 0.33 0.33 59 1007.8
20260510010512 67 0 0.0 0.0 0.00 0.33 0.33 58 1007.8
20260510010031 67 0 0.0 0.0 0.00 0.33 0.33 58 1007.7
20260510005510 67 0 0.0 0.0 0.00 0.34 0.33 58 1007.7
20260510005009 68 0 0.0 0.0 0.00 0.34 0.33 56 1007.6
20260510004530 68 0 0.0 0.0 0.00 0.34 0.33 56 1007.5
20260510004111 68 0 0.0 0.9 0.00 0.34 0.33 55 1007.4
20260510003510 69 0 0.0 1.7 0.00 0.34 0.33 54 1007.4
20260510003028 69 257 0.0 1.7 0.00 0.34 0.33 54 1007.4
20260510002511 69 247 0.0 2.6 0.00 0.34 0.33 53 1007.3
20260510002012 70 164 0.0 2.6 0.00 0.34 0.33 52 1007.2
20260510001532 70 244 0.9 2.6 0.00 0.34 0.33 51 1007.2
20260510001010 71 235 0.9 3.5 0.00 0.34 0.33 50 1007.1
20260510000513 71 0 0.9 6.1 0.00 0.34 0.33 49 1007.0
20260510000053 72 124 0.9 6.1 0.00 0.34 0.33 49 1007.0
20260509235517 72 238 0.9 6.1 0.00 0.34 0.33 49 1006.9
20260509235015 72 235 0.9 4.3 0.00 0.34 0.33 49 1006.9
20260509234546 72 125 1.7 6.1 0.00 0.34 0.33 48 1006.9
20260509234013 72 246 1.7 6.1 0.00 0.34 0.33 47 1006.8
20260509233515 73 243 0.9 5.2 0.00 0.34 0.33 47 1006.9
20260509233032 73 238 1.7 6.1 0.00 0.34 0.33 46 1006.8
20260509232514 73 147 0.9 6.1 0.00 0.34 0.33 46 1006.9
20260509232012 73 248 1.7 7.8 0.00 0.34 0.33 46 1006.8
20260509231530 73 146 1.7 7.8 0.00 0.34 0.33 45 1006.8
20260509231012 74 249 2.6 8.7 0.00 0.34 0.33 45 1006.8
20260509230512 74 239 1.7 8.7 0.00 0.34 0.33 45 1006.7
20260509230035 74 165 1.7 6.1 0.00 0.34 0.33 44 1006.7
20260509225513 74 239 1.7 6.1 0.00 0.34 0.33 44 1006.7
20260509225013 74 321 1.7 7.0 0.00 0.34 0.33 44 1006.7
20260509224532 75 181 1.7 7.8 0.00 0.34 0.33 43 1006.7
20260509224011 75 238 1.7 10.4 0.00 0.34 0.33 43 1006.6
20260509223512 74 238 1.7 10.4 0.00 0.34 0.33 43 1006.6
20260509223032 75 243 1.7 8.7 0.00 0.34 0.33 44 1006.6
20260509222512 75 236 0.9 7.8 0.00 0.34 0.33 45 1006.5
20260509222012 75 257 2.6 7.8 0.00 0.34 0.33 45 1006.5
20260509221531 75 191 2.6 7.8 0.00 0.34 0.33 45 1006.6
20260509221012 75 245 1.7 10.4 0.00 0.34 0.33 46 1006.6
20260509220511 75 163 2.6 10.4 0.00 0.34 0.33 47 1006.6
20260509220030 75 259 2.6 10.4 0.00 0.34 0.33 47 1006.5
20260509215511 75 153 1.7 9.6 0.00 0.34 0.33 47 1006.7
20260509215015 75 255 2.6 9.6 0.00 0.34 0.33 47 1006.7
20260509214531 75 129 1.7 7.8 0.00 0.34 0.33 48 1006.7
20260509214013 75 150 1.7 9.6 0.00 0.34 0.33 47 1006.7
20260509213512 76 65 2.6 9.6 0.00 0.34 0.33 46 1006.9
20260509213038 75 245 0.9 11.3 0.00 0.34 0.33 48 1006.8
20260509212511 75 240 2.6 11.3 0.00 0.34 0.33 48 1006.8
20260509212012 75 214 2.6 11.3 0.00 0.34 0.33 47 1006.8
20260509211529 75 254 1.7 11.3 0.00 0.34 0.33 47 1006.9
20260509211012 75 192 3.5 12.2 0.00 0.34 0.33 46 1007.0
20260509210510 75 290 2.6 12.2 0.00 0.34 0.33 47 1006.9
20260509210039 75 136 3.5 9.6 0.00 0.34 0.33 46 1006.8
20260509205512 75 129 2.6 7.8 0.00 0.34 0.33 47 1006.8
20260509205012 75 205 2.6 8.7 0.00 0.34 0.33 46 1007.0
20260509204538 75 169 0.9 11.3 0.00 0.34 0.33 48 1006.9
20260509204012 75 234 1.7 11.3 0.00 0.34 0.33 48 1006.9